Location: Catstown
(52.4386°N, 7.2633°W)
Time: 13:16:12
(UTC+00:00)

Cosmos 2263 Rocket - Pass Details

Date: 18 September 2020
Orbit: 822 x 849 km, 71.0° (Epoch: 21 October)

Event Time Altitude Azimuth Distance (km) Brightness Sun altitude
Rises 21:16:15 0° 249° (WSW) 3,358 5.7 -23.5°
Reaches altitude 10° 21:19:01 10° 261° (W) 2,431 5.1 -23.8°
Maximum altitude 21:23:48 29° 320° (NW) 1,500 4.1 -24.4°
Drops below altitude 10° 21:28:38 10° 19° (NNE) 2,454 4.8 -25.0°
Sets 21:31:26 0° 31° (NNE) 3,396 5.5 -25.3°
